Saint Louis, Missouri, United States (63101)
Lat: 38.63N, Lon: 90.2W
Wx Zone: MOZ064
Local Info
Past Weather Observations for Today

NOTE: This archive is for the closest National Weather Service station to Saint Louis. Information may differ from the station used for current weather conditions.

Click here for Long-term Archive

Time Weather Temperature Dewpoint Humidity Pressure Winds Precip Visibility
19:53
Mostly Cloudy
70°F / 21°C 64°F / 18°C 83% 30.09 in
(1019 mb)
ESE 3.5 mph
(ESE 6 kph)
- 10SM
18:53
Clear
70°F / 21°C 66°F / 19°C 88% 30.06 in
(1018 mb)
S 3.5 mph
(S 6 kph)
0.01 in
(0.25 mm)
10SM
17:53
Overcast
Light Rain
72°F / 22°C 66°F / 19°C 83% 30.06 in
(1018 mb)
NE 6.9 mph
(NE 11 kph)
0.03 in
(0.76 mm)
8SM
16:53
Overcast
Light Rain
75°F / 24°C 70°F / 21°C 83% 30.06 in
(1018 mb)
NNW 6.9 mph
(NNW 11 kph)
0.01 in
(0.25 mm)
9SM
15:53
Mostly Cloudy
Light Rain
75°F / 24°C 66°F / 19°C 74% 30.06 in
(1018 mb)
NNW 11.5 mph
(NNW 19 kph)
0.01 in
(0.25 mm)
10SM
14:53
Mostly Cloudy
Light Rain
82°F / 28°C 61°F / 16°C 48% 30.06 in
(1018 mb)
NNW 12.7 mph
(NNW 20 kph)
0.00 in
(0.00 mm)
10SM
14:32
Clear
Thunder Storms
84°F / 29°C 57°F / 14°C 40% 30.04 in
(1017 mb)
Calm - 10SM
13:53
Clear
84°F / 29°C 57°F / 14°C 40% 30.04 in
(1017 mb)
SE 4.6 mph
(SE 7 kph)
- 10SM
12:53
Clear
86°F / 30°C 57°F / 14°C 38% 30.06 in
(1018 mb)
E 5.8 mph
(E 9 kph)
- 10SM
11:53
Clear
84°F / 29°C 61°F / 16°C 45% 30.06 in
(1018 mb)
Variable 6.9 mph
(Variable 11 kph)
- 10SM
10:53
Clear
82°F / 28°C 61°F / 16°C 48% 30.09 in
(1019 mb)
Variable 3.5 mph
(Variable 6 kph)
- 10SM
09:53
Clear
81°F / 27°C 64°F / 18°C 58% 30.09 in
(1019 mb)
Variable 3.5 mph
(Variable 6 kph)
- 10SM
08:53
Clear
79°F / 26°C 66°F / 19°C 65% 30.09 in
(1019 mb)
SE 4.6 mph
(SE 7 kph)
- 10SM
07:53
Clear
73°F / 23°C 66°F / 19°C 78% 30.09 in
(1019 mb)
Calm - 10SM
06:53
Clear
68°F / 20°C 64°F / 18°C 88% 30.09 in
(1019 mb)
Calm - 10SM
05:53
Clear
Fog And Mist
63°F / 17°C 61°F / 16°C 94% 30.09 in
(1019 mb)
Calm - 4SM
05:37
Clear
Fog And Mist
61°F / 16°C 59°F / 15°C 94% 30.09 in
(1019 mb)
Calm - 4SM
05:30
Clear
Fog And Mist
61°F / 16°C 61°F / 16°C 100% 30.09 in
(1019 mb)
Calm - 2 1/2SM
05:24
Partly Cloudy
Fog
61°F / 16°C 61°F / 16°C 100% 30.09 in
(1019 mb)
Calm - 1/2SM
05:14
Partly Cloudy
Fog
63°F / 17°C 61°F / 16°C 94% 30.09 in
(1019 mb)
Calm - 1/4SM
05:07
Partly Cloudy
Fog
61°F / 16°C 61°F / 16°C 100% 30.09 in
(1019 mb)
Calm - 1/2SM
04:53
Partly Cloudy
Fog And Mist
61°F / 16°C 59°F / 15°C 94% 30.09 in
(1019 mb)
Calm - 2SM
04:12
Clear
Fog And Mist
61°F / 16°C 59°F / 15°C 94% 30.06 in
(1018 mb)
Calm - 4SM
04:05
Clear
Fog And Mist
61°F / 16°C 59°F / 15°C 94% 30.06 in
(1018 mb)
Calm - 2 1/2SM
03:53
Clear
Fog
61°F / 16°C 61°F / 16°C 100% 30.06 in
(1018 mb)
Calm - 1/2SM
03:44
Clear
Fog And Mist
61°F / 16°C 61°F / 16°C 100% 30.06 in
(1018 mb)
Calm - 3/4SM
02:53
Clear
63°F / 17°C 61°F / 16°C 94% 30.06 in
(1018 mb)
Calm - 7SM
01:53
Mostly Cloudy
64°F / 18°C 63°F / 17°C 94% 30.06 in
(1018 mb)
S 3.5 mph
(S 6 kph)
- 8SM
00:53
Clear
64°F / 18°C 63°F / 17°C 94% 30.06 in
(1018 mb)
Calm - 10SM
Time Weather Temperature Dewpoint Humidity Pressure Winds Precip Visibility


Weather for websites

WeatherForYou.com, LLC is not responsible for any damages or problems caused by this service. Current weather conditions are obtained from the closest station including government and personal stations which may have varying degrees of accuracy. Weather forecasts are derived from the NOAA NDFD. Like all things, this site belongs to Jesus Christ... He just trusts me to maintain it. If you have any questions or comments email webmaster@weatherforyou.com

Copyright © 2014, WeatherForYou.com LLC. All rights reserved.